Index of /20260508/WXO-DD/model_rdps/10km/06/037
Name Last modified Size Description
Parent Directory -
20260508T06Z_MSC_RDPS_AbsoluteVorticity_IsbL-0250_RLatLon0.09_PT037H.grib2 2026-05-08 08:51 604K
20260508T06Z_MSC_RDPS_AbsoluteVorticity_IsbL-0500_RLatLon0.09_PT037H.grib2 2026-05-08 08:51 688K
20260508T06Z_MSC_RDPS_AbsoluteVorticity_IsbL-0700_RLatLon0.09_PT037H.grib2 2026-05-08 08:51 626K
20260508T06Z_MSC_RDPS_AbsoluteVorticity_IsbL-0850_RLatLon0.09_PT037H.grib2 2026-05-08 08:51 796K
20260508T06Z_MSC_RDPS_AirTemp_AGL-120m_RLatLon0.09_PT037H.grib2 2026-05-08 08:51 379K
20260508T06Z_MSC_RDPS_AirTemp_AGL-2m_RLatLon0.09_PT037H.grib2 2026-05-08 08:51 630K
20260508T06Z_MSC_RDPS_AirTemp_AGL-40m_RLatLon0.09_PT037H.grib2 2026-05-08 08:51 387K
20260508T06Z_MSC_RDPS_AirTemp_AGL-80m_RLatLon0.09_PT037H.grib2 2026-05-08 08:51 382K
20260508T06Z_MSC_RDPS_AirTemp_IsbL-0001_RLatLon0.09_PT037H.grib2 2026-05-08 08:51 249K
20260508T06Z_MSC_RDPS_AirTemp_IsbL-0005_RLatLon0.09_PT037H.grib2 2026-05-08 08:51 293K
20260508T06Z_MSC_RDPS_AirTemp_IsbL-0010_RLatLon0.09_PT037H.grib2 2026-05-08 08:51 397K
20260508T06Z_MSC_RDPS_AirTemp_IsbL-0020_RLatLon0.09_PT037H.grib2 2026-05-08 08:51 319K
20260508T06Z_MSC_RDPS_AirTemp_IsbL-0030_RLatLon0.09_PT037H.grib2 2026-05-08 08:51 339K
20260508T06Z_MSC_RDPS_AirTemp_IsbL-0050_RLatLon0.09_PT037H.grib2 2026-05-08 08:51 310K
20260508T06Z_MSC_RDPS_AirTemp_IsbL-0100_RLatLon0.09_PT037H.grib2 2026-05-08 08:51 425K
20260508T06Z_MSC_RDPS_AirTemp_IsbL-0150_RLatLon0.09_PT037H.grib2 2026-05-08 08:51 413K
20260508T06Z_MSC_RDPS_AirTemp_IsbL-0175_RLatLon0.09_PT037H.grib2 2026-05-08 08:51 409K
20260508T06Z_MSC_RDPS_AirTemp_IsbL-0200_RLatLon0.09_PT037H.grib2 2026-05-08 08:51 412K
20260508T06Z_MSC_RDPS_AirTemp_IsbL-0225_RLatLon0.09_PT037H.grib2 2026-05-08 08:51 412K
20260508T06Z_MSC_RDPS_AirTemp_IsbL-0250_RLatLon0.09_PT037H.grib2 2026-05-08 08:51 422K
20260508T06Z_MSC_RDPS_AirTemp_IsbL-0275_RLatLon0.09_PT037H.grib2 2026-05-08 08:51 401K
20260508T06Z_MSC_RDPS_AirTemp_IsbL-0300_RLatLon0.09_PT037H.grib2 2026-05-08 08:51 406K
20260508T06Z_MSC_RDPS_AirTemp_IsbL-0350_RLatLon0.09_PT037H.grib2 2026-05-08 08:51 418K
20260508T06Z_MSC_RDPS_AirTemp_IsbL-0400_RLatLon0.09_PT037H.grib2 2026-05-08 08:51 421K
20260508T06Z_MSC_RDPS_AirTemp_IsbL-0450_RLatLon0.09_PT037H.grib2 2026-05-08 08:51 429K
20260508T06Z_MSC_RDPS_AirTemp_IsbL-0500_RLatLon0.09_PT037H.grib2 2026-05-08 08:51 441K
20260508T06Z_MSC_RDPS_AirTemp_IsbL-0550_RLatLon0.09_PT037H.grib2 2026-05-08 08:51 463K
20260508T06Z_MSC_RDPS_AirTemp_IsbL-0600_RLatLon0.09_PT037H.grib2 2026-05-08 08:51 485K
20260508T06Z_MSC_RDPS_AirTemp_IsbL-0650_RLatLon0.09_PT037H.grib2 2026-05-08 08:51 502K
20260508T06Z_MSC_RDPS_AirTemp_IsbL-0700_RLatLon0.09_PT037H.grib2 2026-05-08 08:51 493K
20260508T06Z_MSC_RDPS_AirTemp_IsbL-0750_RLatLon0.09_PT037H.grib2 2026-05-08 08:51 541K
20260508T06Z_MSC_RDPS_AirTemp_IsbL-0800_RLatLon0.09_PT037H.grib2 2026-05-08 08:51 592K
20260508T06Z_MSC_RDPS_AirTemp_IsbL-0850_RLatLon0.09_PT037H.grib2 2026-05-08 08:51 639K
20260508T06Z_MSC_RDPS_AirTemp_IsbL-0875_RLatLon0.09_PT037H.grib2 2026-05-08 08:51 529K
20260508T06Z_MSC_RDPS_AirTemp_IsbL-0900_RLatLon0.09_PT037H.grib2 2026-05-08 08:51 535K
20260508T06Z_MSC_RDPS_AirTemp_IsbL-0925_RLatLon0.09_PT037H.grib2 2026-05-08 08:51 537K
20260508T06Z_MSC_RDPS_AirTemp_IsbL-0950_RLatLon0.09_PT037H.grib2 2026-05-08 08:51 537K
20260508T06Z_MSC_RDPS_AirTemp_IsbL-0970_RLatLon0.09_PT037H.grib2 2026-05-08 08:51 532K
20260508T06Z_MSC_RDPS_AirTemp_IsbL-0985_RLatLon0.09_PT037H.grib2 2026-05-08 08:51 516K
20260508T06Z_MSC_RDPS_AirTemp_IsbL-1000_RLatLon0.09_PT037H.grib2 2026-05-08 08:51 505K
20260508T06Z_MSC_RDPS_AirTemp_IsbL-1015_RLatLon0.09_PT037H.grib2 2026-05-08 08:51 517K
20260508T06Z_MSC_RDPS_Albedo_Sfc_RLatLon0.09_PT037H.grib2 2026-05-08 08:51 156K
20260508T06Z_MSC_RDPS_CAPE_Sfc_RLatLon0.09_PT037H.grib2 2026-05-08 08:51 1.8M
20260508T06Z_MSC_RDPS_CIN_Sfc_RLatLon0.09_PT037H.grib2 2026-05-08 08:51 1.3M
20260508T06Z_MSC_RDPS_CloudWater_EAtm_RLatLon0.09_PT037H.grib2 2026-05-08 08:51 228K
20260508T06Z_MSC_RDPS_ConvectivePrecip-Accum_Sfc_RLatLon0.09_PT037H.grib2 2026-05-08 08:51 1.0M
20260508T06Z_MSC_RDPS_DewPointDepression_AGL-2m_RLatLon0.09_PT037H.grib2 2026-05-08 08:51 423K
20260508T06Z_MSC_RDPS_DewPointDepression_IsbL-0001_RLatLon0.09_PT037H.grib2 2026-05-08 08:51 193
20260508T06Z_MSC_RDPS_DewPointDepression_IsbL-0005_RLatLon0.09_PT037H.grib2 2026-05-08 08:51 193
20260508T06Z_MSC_RDPS_DewPointDepression_IsbL-0010_RLatLon0.09_PT037H.grib2 2026-05-08 08:51 193
20260508T06Z_MSC_RDPS_DewPointDepression_IsbL-0020_RLatLon0.09_PT037H.grib2 2026-05-08 08:51 193
20260508T06Z_MSC_RDPS_DewPointDepression_IsbL-0030_RLatLon0.09_PT037H.grib2 2026-05-08 08:51 193
20260508T06Z_MSC_RDPS_DewPointDepression_IsbL-0050_RLatLon0.09_PT037H.grib2 2026-05-08 08:51 81K
20260508T06Z_MSC_RDPS_DewPointDepression_IsbL-0100_RLatLon0.09_PT037H.grib2 2026-05-08 08:51 114K
20260508T06Z_MSC_RDPS_DewPointDepression_IsbL-0150_RLatLon0.09_PT037H.grib2 2026-05-08 08:51 152K
20260508T06Z_MSC_RDPS_DewPointDepression_IsbL-0175_RLatLon0.09_PT037H.grib2 2026-05-08 08:51 179K
20260508T06Z_MSC_RDPS_DewPointDepression_IsbL-0200_RLatLon0.09_PT037H.grib2 2026-05-08 08:51 223K
20260508T06Z_MSC_RDPS_DewPointDepression_IsbL-0225_RLatLon0.09_PT037H.grib2 2026-05-08 08:51 264K
20260508T06Z_MSC_RDPS_DewPointDepression_IsbL-0250_RLatLon0.09_PT037H.grib2 2026-05-08 08:51 306K
20260508T06Z_MSC_RDPS_DewPointDepression_IsbL-0275_RLatLon0.09_PT037H.grib2 2026-05-08 08:51 311K
20260508T06Z_MSC_RDPS_DewPointDepression_IsbL-0300_RLatLon0.09_PT037H.grib2 2026-05-08 08:51 322K
20260508T06Z_MSC_RDPS_DewPointDepression_IsbL-0350_RLatLon0.09_PT037H.grib2 2026-05-08 08:51 323K
20260508T06Z_MSC_RDPS_DewPointDepression_IsbL-0400_RLatLon0.09_PT037H.grib2 2026-05-08 08:51 332K
20260508T06Z_MSC_RDPS_DewPointDepression_IsbL-0450_RLatLon0.09_PT037H.grib2 2026-05-08 08:51 335K
20260508T06Z_MSC_RDPS_DewPointDepression_IsbL-0500_RLatLon0.09_PT037H.grib2 2026-05-08 08:51 340K
20260508T06Z_MSC_RDPS_DewPointDepression_IsbL-0550_RLatLon0.09_PT037H.grib2 2026-05-08 08:51 354K
20260508T06Z_MSC_RDPS_DewPointDepression_IsbL-0600_RLatLon0.09_PT037H.grib2 2026-05-08 08:51 372K
20260508T06Z_MSC_RDPS_DewPointDepression_IsbL-0650_RLatLon0.09_PT037H.grib2 2026-05-08 08:51 383K
20260508T06Z_MSC_RDPS_DewPointDepression_IsbL-0700_RLatLon0.09_PT037H.grib2 2026-05-08 08:51 398K
20260508T06Z_MSC_RDPS_DewPointDepression_IsbL-0750_RLatLon0.09_PT037H.grib2 2026-05-08 08:51 423K
20260508T06Z_MSC_RDPS_DewPointDepression_IsbL-0800_RLatLon0.09_PT037H.grib2 2026-05-08 08:51 462K
20260508T06Z_MSC_RDPS_DewPointDepression_IsbL-0850_RLatLon0.09_PT037H.grib2 2026-05-08 08:51 485K
20260508T06Z_MSC_RDPS_DewPointDepression_IsbL-0875_RLatLon0.09_PT037H.grib2 2026-05-08 08:51 479K
20260508T06Z_MSC_RDPS_DewPointDepression_IsbL-0900_RLatLon0.09_PT037H.grib2 2026-05-08 08:51 467K
20260508T06Z_MSC_RDPS_DewPointDepression_IsbL-0925_RLatLon0.09_PT037H.grib2 2026-05-08 08:51 453K
20260508T06Z_MSC_RDPS_DewPointDepression_IsbL-0950_RLatLon0.09_PT037H.grib2 2026-05-08 08:51 442K
20260508T06Z_MSC_RDPS_DewPointDepression_IsbL-0970_RLatLon0.09_PT037H.grib2 2026-05-08 08:51 436K
20260508T06Z_MSC_RDPS_DewPointDepression_IsbL-0985_RLatLon0.09_PT037H.grib2 2026-05-08 08:51 429K
20260508T06Z_MSC_RDPS_DewPointDepression_IsbL-1000_RLatLon0.09_PT037H.grib2 2026-05-08 08:51 424K
20260508T06Z_MSC_RDPS_DewPointDepression_IsbL-1015_RLatLon0.09_PT037H.grib2 2026-05-08 08:51 417K
20260508T06Z_MSC_RDPS_DewPoint_AGL-2m_RLatLon0.09_PT037H.grib2 2026-05-08 08:51 397K
20260508T06Z_MSC_RDPS_DownwardLongwaveRadiationFlux-Accum_Sfc_RLatLon0.09_PT037H.grib2 2026-05-08 08:51 379K
20260508T06Z_MSC_RDPS_DownwardShortwaveRadiationFlux-Accum_NTAtm_RLatLon0.09_PT037H.grib2 2026-05-08 08:51 140K
20260508T06Z_MSC_RDPS_DownwardShortwaveRadiationFlux-Accum_Sfc_RLatLon0.09_PT037H.grib2 2026-05-08 08:51 532K
20260508T06Z_MSC_RDPS_FreezingRain-Accum1h_Sfc_RLatLon0.09_PT037H.grib2 2026-05-08 08:51 20K
20260508T06Z_MSC_RDPS_FreezingRain-Accum_Sfc_RLatLon0.09_PT037H.grib2 2026-05-08 08:51 132K
20260508T06Z_MSC_RDPS_GeopotentialHeight_IsbL-0001_RLatLon0.09_PT037H.grib2 2026-05-08 08:51 280K
20260508T06Z_MSC_RDPS_GeopotentialHeight_IsbL-0005_RLatLon0.09_PT037H.grib2 2026-05-08 08:51 344K
20260508T06Z_MSC_RDPS_GeopotentialHeight_IsbL-0010_RLatLon0.09_PT037H.grib2 2026-05-08 08:51 313K
20260508T06Z_MSC_RDPS_GeopotentialHeight_IsbL-0020_RLatLon0.09_PT037H.grib2 2026-05-08 08:51 311K
20260508T06Z_MSC_RDPS_GeopotentialHeight_IsbL-0030_RLatLon0.09_PT037H.grib2 2026-05-08 08:51 312K
20260508T06Z_MSC_RDPS_GeopotentialHeight_IsbL-0050_RLatLon0.09_PT037H.grib2 2026-05-08 08:51 313K
20260508T06Z_MSC_RDPS_GeopotentialHeight_IsbL-0100_RLatLon0.09_PT037H.grib2 2026-05-08 08:51 286K
20260508T06Z_MSC_RDPS_GeopotentialHeight_IsbL-0150_RLatLon0.09_PT037H.grib2 2026-05-08 08:51 227K
20260508T06Z_MSC_RDPS_GeopotentialHeight_IsbL-0175_RLatLon0.09_PT037H.grib2 2026-05-08 08:51 230K
20260508T06Z_MSC_RDPS_GeopotentialHeight_IsbL-0200_RLatLon0.09_PT037H.grib2 2026-05-08 08:51 234K
20260508T06Z_MSC_RDPS_GeopotentialHeight_IsbL-0225_RLatLon0.09_PT037H.grib2 2026-05-08 08:51 267K
20260508T06Z_MSC_RDPS_GeopotentialHeight_IsbL-0250_RLatLon0.09_PT037H.grib2 2026-05-08 08:51 268K
20260508T06Z_MSC_RDPS_GeopotentialHeight_IsbL-0275_RLatLon0.09_PT037H.grib2 2026-05-08 08:51 237K
20260508T06Z_MSC_RDPS_GeopotentialHeight_IsbL-0300_RLatLon0.09_PT037H.grib2 2026-05-08 08:51 236K
20260508T06Z_MSC_RDPS_GeopotentialHeight_IsbL-0350_RLatLon0.09_PT037H.grib2 2026-05-08 08:51 232K
20260508T06Z_MSC_RDPS_GeopotentialHeight_IsbL-0400_RLatLon0.09_PT037H.grib2 2026-05-08 08:51 228K
20260508T06Z_MSC_RDPS_GeopotentialHeight_IsbL-0450_RLatLon0.09_PT037H.grib2 2026-05-08 08:51 296K
20260508T06Z_MSC_RDPS_GeopotentialHeight_IsbL-0500_RLatLon0.09_PT037H.grib2 2026-05-08 08:51 291K
20260508T06Z_MSC_RDPS_GeopotentialHeight_IsbL-0550_RLatLon0.09_PT037H.grib2 2026-05-08 08:51 287K
20260508T06Z_MSC_RDPS_GeopotentialHeight_IsbL-0600_RLatLon0.09_PT037H.grib2 2026-05-08 08:51 284K
20260508T06Z_MSC_RDPS_GeopotentialHeight_IsbL-0650_RLatLon0.09_PT037H.grib2 2026-05-08 08:51 284K
20260508T06Z_MSC_RDPS_GeopotentialHeight_IsbL-0700_RLatLon0.09_PT037H.grib2 2026-05-08 08:51 257K
20260508T06Z_MSC_RDPS_GeopotentialHeight_IsbL-0750_RLatLon0.09_PT037H.grib2 2026-05-08 08:51 261K
20260508T06Z_MSC_RDPS_GeopotentialHeight_IsbL-0800_RLatLon0.09_PT037H.grib2 2026-05-08 08:51 269K
20260508T06Z_MSC_RDPS_GeopotentialHeight_IsbL-0850_RLatLon0.09_PT037H.grib2 2026-05-08 08:51 274K
20260508T06Z_MSC_RDPS_GeopotentialHeight_IsbL-0875_RLatLon0.09_PT037H.grib2 2026-05-08 08:51 277K
20260508T06Z_MSC_RDPS_GeopotentialHeight_IsbL-0900_RLatLon0.09_PT037H.grib2 2026-05-08 08:51 280K
20260508T06Z_MSC_RDPS_GeopotentialHeight_IsbL-0925_RLatLon0.09_PT037H.grib2 2026-05-08 08:51 284K
20260508T06Z_MSC_RDPS_GeopotentialHeight_IsbL-0950_RLatLon0.09_PT037H.grib2 2026-05-08 08:51 288K
20260508T06Z_MSC_RDPS_GeopotentialHeight_IsbL-0970_RLatLon0.09_PT037H.grib2 2026-05-08 08:51 294K
20260508T06Z_MSC_RDPS_GeopotentialHeight_IsbL-0985_RLatLon0.09_PT037H.grib2 2026-05-08 08:51 302K
20260508T06Z_MSC_RDPS_GeopotentialHeight_IsbL-1000_RLatLon0.09_PT037H.grib2 2026-05-08 08:51 311K
20260508T06Z_MSC_RDPS_GeopotentialHeight_IsbL-1015_RLatLon0.09_PT037H.grib2 2026-05-08 08:51 324K
20260508T06Z_MSC_RDPS_HighLowPressure_MSL_RLatLon0.09_PT037H.json 2026-05-08 08:43 19K
20260508T06Z_MSC_RDPS_Humidex_Sfc_RLatLon0.09_PT037H.grib2 2026-05-08 08:51 2.4M
20260508T06Z_MSC_RDPS_IcePellets-Accum1h_Sfc_RLatLon0.09_PT037H.grib2 2026-05-08 08:51 6.2K
20260508T06Z_MSC_RDPS_IcePellets-Accum_Sfc_RLatLon0.09_PT037H.grib2 2026-05-08 08:51 19K
20260508T06Z_MSC_RDPS_KIndex_Sfc_RLatLon0.09_PT037H.grib2 2026-05-08 08:51 2.5M
20260508T06Z_MSC_RDPS_LatentHeatNetFlux_Sfc_RLatLon0.09_PT037H.grib2 2026-05-08 08:51 325K
20260508T06Z_MSC_RDPS_LiftedIndex-MU-VT_IsbL-0500_RLatLon0.09_PT037H.grib2 2026-05-08 08:51 2.4M
20260508T06Z_MSC_RDPS_NetLongwaveRadiationFlux-Accum_Sfc_RLatLon0.09_PT037H.grib2 2026-05-08 08:51 513K
20260508T06Z_MSC_RDPS_NetShortwaveRadiationFlux-Accum_Sfc_RLatLon0.09_PT037H.grib2 2026-05-08 08:51 532K
20260508T06Z_MSC_RDPS_PlanetaryBoundaryLayerHeight_Sfc_RLatLon0.09_PT037H.grib2 2026-05-08 08:51 1.0M
20260508T06Z_MSC_RDPS_Precip-Accum1h_Sfc_RLatLon0.09_PT037H.grib2 2026-05-08 08:51 1.3M
20260508T06Z_MSC_RDPS_Precip-Accum_Sfc_RLatLon0.09_PT037H.grib2 2026-05-08 08:51 2.0M
20260508T06Z_MSC_RDPS_PrecipRate_Sfc_RLatLon0.09_PT037H.grib2 2026-05-08 08:51 196K
20260508T06Z_MSC_RDPS_PrecipType-Instant_Sfc_RLatLon0.09_PT037H.grib2 2026-05-08 08:51 616K
20260508T06Z_MSC_RDPS_Pressure-Trend3h_Sfc_RLatLon0.09_PT037H.grib2 2026-05-08 08:51 1.2M
20260508T06Z_MSC_RDPS_Pressure_MSL_RLatLon0.09_PT037H.grib2 2026-05-08 08:51 332K
20260508T06Z_MSC_RDPS_Pressure_PVU-1.5_RLatLon0.09_PT037H.grib2 2026-05-08 08:51 2.3M
20260508T06Z_MSC_RDPS_Pressure_PVU-1_RLatLon0.09_PT037H.grib2 2026-05-08 08:51 2.4M
20260508T06Z_MSC_RDPS_Pressure_PVU-2_RLatLon0.09_PT037H.grib2 2026-05-08 08:51 2.3M
20260508T06Z_MSC_RDPS_Pressure_Sfc_RLatLon0.09_PT037H.grib2 2026-05-08 08:51 500K
20260508T06Z_MSC_RDPS_RadiativeTemp_Sfc_RLatLon0.09_PT037H.grib2 2026-05-08 08:51 330K
20260508T06Z_MSC_RDPS_Rain-Accum1h_Sfc_RLatLon0.09_PT037H.grib2 2026-05-08 08:51 701K
20260508T06Z_MSC_RDPS_Rain-Accum_Sfc_RLatLon0.09_PT037H.grib2 2026-05-08 08:51 1.6M
20260508T06Z_MSC_RDPS_RelativeHumidity_AGL-2m_RLatLon0.09_PT037H.grib2 2026-05-08 08:51 1.0M
20260508T06Z_MSC_RDPS_RelativeHumidity_IsbL-0010_RLatLon0.09_PT037H.grib2 2026-05-08 08:51 612K
20260508T06Z_MSC_RDPS_RelativeHumidity_IsbL-0020_RLatLon0.09_PT037H.grib2 2026-05-08 08:51 646K
20260508T06Z_MSC_RDPS_RelativeHumidity_IsbL-0030_RLatLon0.09_PT037H.grib2 2026-05-08 08:51 632K
20260508T06Z_MSC_RDPS_RelativeHumidity_IsbL-0050_RLatLon0.09_PT037H.grib2 2026-05-08 08:51 358K
20260508T06Z_MSC_RDPS_RelativeHumidity_IsbL-0100_RLatLon0.09_PT037H.grib2 2026-05-08 08:51 281K
20260508T06Z_MSC_RDPS_RelativeHumidity_IsbL-0150_RLatLon0.09_PT037H.grib2 2026-05-08 08:51 421K
20260508T06Z_MSC_RDPS_RelativeHumidity_IsbL-0175_RLatLon0.09_PT037H.grib2 2026-05-08 08:51 475K
20260508T06Z_MSC_RDPS_RelativeHumidity_IsbL-0200_RLatLon0.09_PT037H.grib2 2026-05-08 08:51 545K
20260508T06Z_MSC_RDPS_RelativeHumidity_IsbL-0225_RLatLon0.09_PT037H.grib2 2026-05-08 08:51 615K
20260508T06Z_MSC_RDPS_RelativeHumidity_IsbL-0250_RLatLon0.09_PT037H.grib2 2026-05-08 08:51 692K
20260508T06Z_MSC_RDPS_RelativeHumidity_IsbL-0275_RLatLon0.09_PT037H.grib2 2026-05-08 08:51 718K
20260508T06Z_MSC_RDPS_RelativeHumidity_IsbL-0300_RLatLon0.09_PT037H.grib2 2026-05-08 08:51 752K
20260508T06Z_MSC_RDPS_RelativeHumidity_IsbL-0350_RLatLon0.09_PT037H.grib2 2026-05-08 08:51 763K
20260508T06Z_MSC_RDPS_RelativeHumidity_IsbL-0400_RLatLon0.09_PT037H.grib2 2026-05-08 08:51 776K
20260508T06Z_MSC_RDPS_RelativeHumidity_IsbL-0450_RLatLon0.09_PT037H.grib2 2026-05-08 08:51 782K
20260508T06Z_MSC_RDPS_RelativeHumidity_IsbL-0500_RLatLon0.09_PT037H.grib2 2026-05-08 08:51 791K
20260508T06Z_MSC_RDPS_RelativeHumidity_IsbL-0550_RLatLon0.09_PT037H.grib2 2026-05-08 08:51 811K
20260508T06Z_MSC_RDPS_RelativeHumidity_IsbL-0600_RLatLon0.09_PT037H.grib2 2026-05-08 08:51 837K
20260508T06Z_MSC_RDPS_RelativeHumidity_IsbL-0650_RLatLon0.09_PT037H.grib2 2026-05-08 08:51 855K
20260508T06Z_MSC_RDPS_RelativeHumidity_IsbL-0700_RLatLon0.09_PT037H.grib2 2026-05-08 08:51 895K
20260508T06Z_MSC_RDPS_RelativeHumidity_IsbL-0750_RLatLon0.09_PT037H.grib2 2026-05-08 08:51 948K
20260508T06Z_MSC_RDPS_RelativeHumidity_IsbL-0800_RLatLon0.09_PT037H.grib2 2026-05-08 08:51 1.0M
20260508T06Z_MSC_RDPS_RelativeHumidity_IsbL-0850_RLatLon0.09_PT037H.grib2 2026-05-08 08:51 1.1M
20260508T06Z_MSC_RDPS_RelativeHumidity_IsbL-0875_RLatLon0.09_PT037H.grib2 2026-05-08 08:51 1.1M
20260508T06Z_MSC_RDPS_RelativeHumidity_IsbL-0900_RLatLon0.09_PT037H.grib2 2026-05-08 08:51 1.1M
20260508T06Z_MSC_RDPS_RelativeHumidity_IsbL-0925_RLatLon0.09_PT037H.grib2 2026-05-08 08:51 1.1M
20260508T06Z_MSC_RDPS_RelativeHumidity_IsbL-0950_RLatLon0.09_PT037H.grib2 2026-05-08 08:51 1.1M
20260508T06Z_MSC_RDPS_RelativeHumidity_IsbL-0970_RLatLon0.09_PT037H.grib2 2026-05-08 08:51 1.0M
20260508T06Z_MSC_RDPS_RelativeHumidity_IsbL-0985_RLatLon0.09_PT037H.grib2 2026-05-08 08:51 1.0M
20260508T06Z_MSC_RDPS_RelativeHumidity_IsbL-1000_RLatLon0.09_PT037H.grib2 2026-05-08 08:51 1.0M
20260508T06Z_MSC_RDPS_RelativeHumidity_IsbL-1015_RLatLon0.09_PT037H.grib2 2026-05-08 08:51 1.0M
20260508T06Z_MSC_RDPS_Runoff-Accum_Sfc_RLatLon0.09_PT037H.grib2 2026-05-08 08:51 42K
20260508T06Z_MSC_RDPS_SWEATIndex_Sfc_RLatLon0.09_PT037H.grib2 2026-05-08 08:51 2.5M
20260508T06Z_MSC_RDPS_SeeingIndex_EAtm_RLatLon0.09_PT037H.grib2 2026-05-08 08:51 1.0M
20260508T06Z_MSC_RDPS_SensibleHeatNetFlux_Sfc_RLatLon0.09_PT037H.grib2 2026-05-08 08:51 371K
20260508T06Z_MSC_RDPS_ShowalterIndex_IsbL-0500_RLatLon0.09_PT037H.grib2 2026-05-08 08:51 2.6M
20260508T06Z_MSC_RDPS_SkyTransparencyIndex_EAtm_RLatLon0.09_PT037H.grib2 2026-05-08 08:51 692K
20260508T06Z_MSC_RDPS_Snow-Accum1h_Sfc_RLatLon0.09_PT037H.grib2 2026-05-08 08:51 357K
20260508T06Z_MSC_RDPS_Snow-Accum_Sfc_RLatLon0.09_PT037H.grib2 2026-05-08 08:51 698K
20260508T06Z_MSC_RDPS_SnowDensity_Sfc_RLatLon0.09_PT037H.grib2 2026-05-08 08:51 170K
20260508T06Z_MSC_RDPS_SnowDepth_Sfc_RLatLon0.09_PT037H.grib2 2026-05-08 08:51 624K
20260508T06Z_MSC_RDPS_SoilTemp_DBS-0to10cm_RLatLon0.09_PT037H.grib2 2026-05-08 08:51 236K
20260508T06Z_MSC_RDPS_SoilTemp_Sfc_RLatLon0.09_PT037H.grib2 2026-05-08 08:51 297K
20260508T06Z_MSC_RDPS_SoilVolumetricIceContent_Sfc_RLatLon0.09_PT037H.grib2 2026-05-08 08:51 144K
20260508T06Z_MSC_RDPS_SoilVolumetricWaterContent_DBS-0to10cm_RLatLon0.09_PT037H.grib2 2026-05-08 08:51 288K
20260508T06Z_MSC_RDPS_SoilVolumetricWaterContent_DBS-0to1cm_RLatLon0.09_PT037H.grib2 2026-05-08 08:51 340K
20260508T06Z_MSC_RDPS_SpecificHumidity_AGL-120m_RLatLon0.09_PT037H.grib2 2026-05-08 08:51 508K
20260508T06Z_MSC_RDPS_SpecificHumidity_AGL-2m_RLatLon0.09_PT037H.grib2 2026-05-08 08:51 680K
20260508T06Z_MSC_RDPS_SpecificHumidity_AGL-40m_RLatLon0.09_PT037H.grib2 2026-05-08 08:51 512K
20260508T06Z_MSC_RDPS_SpecificHumidity_AGL-80m_RLatLon0.09_PT037H.grib2 2026-05-08 08:51 508K
20260508T06Z_MSC_RDPS_SpecificHumidity_IsbL-0001_RLatLon0.09_PT037H.grib2 2026-05-08 08:51 368K
20260508T06Z_MSC_RDPS_SpecificHumidity_IsbL-0005_RLatLon0.09_PT037H.grib2 2026-05-08 08:51 374K
20260508T06Z_MSC_RDPS_SpecificHumidity_IsbL-0010_RLatLon0.09_PT037H.grib2 2026-05-08 08:51 402K
20260508T06Z_MSC_RDPS_SpecificHumidity_IsbL-0020_RLatLon0.09_PT037H.grib2 2026-05-08 08:51 494K
20260508T06Z_MSC_RDPS_SpecificHumidity_IsbL-0030_RLatLon0.09_PT037H.grib2 2026-05-08 08:51 375K
20260508T06Z_MSC_RDPS_SpecificHumidity_IsbL-0050_RLatLon0.09_PT037H.grib2 2026-05-08 08:51 485K
20260508T06Z_MSC_RDPS_SpecificHumidity_IsbL-0100_RLatLon0.09_PT037H.grib2 2026-05-08 08:51 342K
20260508T06Z_MSC_RDPS_SpecificHumidity_IsbL-0150_RLatLon0.09_PT037H.grib2 2026-05-08 08:51 490K
20260508T06Z_MSC_RDPS_SpecificHumidity_IsbL-0175_RLatLon0.09_PT037H.grib2 2026-05-08 08:51 439K
20260508T06Z_MSC_RDPS_SpecificHumidity_IsbL-0200_RLatLon0.09_PT037H.grib2 2026-05-08 08:51 454K
20260508T06Z_MSC_RDPS_SpecificHumidity_IsbL-0225_RLatLon0.09_PT037H.grib2 2026-05-08 08:51 458K
20260508T06Z_MSC_RDPS_SpecificHumidity_IsbL-0250_RLatLon0.09_PT037H.grib2 2026-05-08 08:51 568K
20260508T06Z_MSC_RDPS_SpecificHumidity_IsbL-0275_RLatLon0.09_PT037H.grib2 2026-05-08 08:51 482K
20260508T06Z_MSC_RDPS_SpecificHumidity_IsbL-0300_RLatLon0.09_PT037H.grib2 2026-05-08 08:51 550K
20260508T06Z_MSC_RDPS_SpecificHumidity_IsbL-0350_RLatLon0.09_PT037H.grib2 2026-05-08 08:51 539K
20260508T06Z_MSC_RDPS_SpecificHumidity_IsbL-0400_RLatLon0.09_PT037H.grib2 2026-05-08 08:51 519K
20260508T06Z_MSC_RDPS_SpecificHumidity_IsbL-0450_RLatLon0.09_PT037H.grib2 2026-05-08 08:51 572K
20260508T06Z_MSC_RDPS_SpecificHumidity_IsbL-0500_RLatLon0.09_PT037H.grib2 2026-05-08 08:51 510K
20260508T06Z_MSC_RDPS_SpecificHumidity_IsbL-0550_RLatLon0.09_PT037H.grib2 2026-05-08 08:51 584K
20260508T06Z_MSC_RDPS_SpecificHumidity_IsbL-0600_RLatLon0.09_PT037H.grib2 2026-05-08 08:51 641K
20260508T06Z_MSC_RDPS_SpecificHumidity_IsbL-0650_RLatLon0.09_PT037H.grib2 2026-05-08 08:51 562K
20260508T06Z_MSC_RDPS_SpecificHumidity_IsbL-0700_RLatLon0.09_PT037H.grib2 2026-05-08 08:51 615K
20260508T06Z_MSC_RDPS_SpecificHumidity_IsbL-0750_RLatLon0.09_PT037H.grib2 2026-05-08 08:51 681K
20260508T06Z_MSC_RDPS_SpecificHumidity_IsbL-0800_RLatLon0.09_PT037H.grib2 2026-05-08 08:51 774K
20260508T06Z_MSC_RDPS_SpecificHumidity_IsbL-0850_RLatLon0.09_PT037H.grib2 2026-05-08 08:51 702K
20260508T06Z_MSC_RDPS_SpecificHumidity_IsbL-0875_RLatLon0.09_PT037H.grib2 2026-05-08 08:51 718K
20260508T06Z_MSC_RDPS_SpecificHumidity_IsbL-0900_RLatLon0.09_PT037H.grib2 2026-05-08 08:51 726K
20260508T06Z_MSC_RDPS_SpecificHumidity_IsbL-0925_RLatLon0.09_PT037H.grib2 2026-05-08 08:51 727K
20260508T06Z_MSC_RDPS_SpecificHumidity_IsbL-0950_RLatLon0.09_PT037H.grib2 2026-05-08 08:51 726K
20260508T06Z_MSC_RDPS_SpecificHumidity_IsbL-0970_RLatLon0.09_PT037H.grib2 2026-05-08 08:51 721K
20260508T06Z_MSC_RDPS_SpecificHumidity_IsbL-0985_RLatLon0.09_PT037H.grib2 2026-05-08 08:51 712K
20260508T06Z_MSC_RDPS_SpecificHumidity_IsbL-1000_RLatLon0.09_PT037H.grib2 2026-05-08 08:51 705K
20260508T06Z_MSC_RDPS_SpecificHumidity_IsbL-1015_RLatLon0.09_PT037H.grib2 2026-05-08 08:51 694K
20260508T06Z_MSC_RDPS_SpecificHumidity_Sfc_RLatLon0.09_PT037H.grib2 2026-05-08 08:51 357K
20260508T06Z_MSC_RDPS_StormRelativeHelicity_EtaL-10000_RLatLon0.09_PT037H.grib2 2026-05-08 08:51 1.1M
20260508T06Z_MSC_RDPS_StormSeverityIndex_EtaL-10000_RLatLon0.09_PT037H.grib2 2026-05-08 08:51 1.1M
20260508T06Z_MSC_RDPS_Thickness_IsbL-0850to0700_RLatLon0.09_PT037H.grib2 2026-05-08 08:51 253K
20260508T06Z_MSC_RDPS_Thickness_IsbL-1000to0500_RLatLon0.09_PT037H.grib2 2026-05-08 08:51 200K
20260508T06Z_MSC_RDPS_Thickness_IsbL-1000to0850_RLatLon0.09_PT037H.grib2 2026-05-08 08:51 268K
20260508T06Z_MSC_RDPS_TotalCloudCover_Sfc_RLatLon0.09_PT037H.grib2 2026-05-08 08:51 651K
20260508T06Z_MSC_RDPS_TotalTotalsIndex_Sfc_RLatLon0.09_PT037H.grib2 2026-05-08 08:51 2.4M
20260508T06Z_MSC_RDPS_UVIndex-ClearSky_Sfc_RLatLon0.09_PT037H.grib2 2026-05-08 08:51 230K
20260508T06Z_MSC_RDPS_UVIndex_Sfc_RLatLon0.09_PT037H.grib2 2026-05-08 08:51 551K
20260508T06Z_MSC_RDPS_UpwardLongwaveRadiationFlux_NTAtm_RLatLon0.09_PT037H.grib2 2026-05-08 08:51 381K
20260508T06Z_MSC_RDPS_UpwardShortwaveRadiationFlux_NTAtm_RLatLon0.09_PT037H.grib2 2026-05-08 08:51 578K
20260508T06Z_MSC_RDPS_VerticalVelocity_IsbL-0250_RLatLon0.09_PT037H.grib2 2026-05-08 08:51 576K
20260508T06Z_MSC_RDPS_VerticalVelocity_IsbL-0500_RLatLon0.09_PT037H.grib2 2026-05-08 08:51 533K
20260508T06Z_MSC_RDPS_VerticalVelocity_IsbL-0700_RLatLon0.09_PT037H.grib2 2026-05-08 08:51 627K
20260508T06Z_MSC_RDPS_VerticalVelocity_IsbL-0850_RLatLon0.09_PT037H.grib2 2026-05-08 08:51 715K
20260508T06Z_MSC_RDPS_VerticalWindShear_EtaL-6500_RLatLon0.09_PT037H.grib2 2026-05-08 08:51 1.2M
20260508T06Z_MSC_RDPS_WindChill_Sfc_RLatLon0.09_PT037H.grib2 2026-05-08 08:51 1.2M
20260508T06Z_MSC_RDPS_WindDir_AGL-10m_RLatLon0.09_PT037H.grib2 2026-05-08 08:51 967K
20260508T06Z_MSC_RDPS_WindDir_AGL-120m_RLatLon0.09_PT037H.grib2 2026-05-08 08:51 615K
20260508T06Z_MSC_RDPS_WindDir_AGL-40m_RLatLon0.09_PT037H.grib2 2026-05-08 08:51 635K
20260508T06Z_MSC_RDPS_WindDir_AGL-80m_RLatLon0.09_PT037H.grib2 2026-05-08 08:51 623K
20260508T06Z_MSC_RDPS_WindDir_IsbL-0001_RLatLon0.09_PT037H.grib2 2026-05-08 08:51 272K
20260508T06Z_MSC_RDPS_WindDir_IsbL-0005_RLatLon0.09_PT037H.grib2 2026-05-08 08:51 359K
20260508T06Z_MSC_RDPS_WindDir_IsbL-0010_RLatLon0.09_PT037H.grib2 2026-05-08 08:51 390K
20260508T06Z_MSC_RDPS_WindDir_IsbL-0020_RLatLon0.09_PT037H.grib2 2026-05-08 08:51 424K
20260508T06Z_MSC_RDPS_WindDir_IsbL-0030_RLatLon0.09_PT037H.grib2 2026-05-08 08:51 417K
20260508T06Z_MSC_RDPS_WindDir_IsbL-0050_RLatLon0.09_PT037H.grib2 2026-05-08 08:51 427K
20260508T06Z_MSC_RDPS_WindDir_IsbL-0100_RLatLon0.09_PT037H.grib2 2026-05-08 08:51 419K
20260508T06Z_MSC_RDPS_WindDir_IsbL-0150_RLatLon0.09_PT037H.grib2 2026-05-08 08:51 420K
20260508T06Z_MSC_RDPS_WindDir_IsbL-0175_RLatLon0.09_PT037H.grib2 2026-05-08 08:51 448K
20260508T06Z_MSC_RDPS_WindDir_IsbL-0200_RLatLon0.09_PT037H.grib2 2026-05-08 08:51 458K
20260508T06Z_MSC_RDPS_WindDir_IsbL-0225_RLatLon0.09_PT037H.grib2 2026-05-08 08:51 461K
20260508T06Z_MSC_RDPS_WindDir_IsbL-0250_RLatLon0.09_PT037H.grib2 2026-05-08 08:51 463K
20260508T06Z_MSC_RDPS_WindDir_IsbL-0275_RLatLon0.09_PT037H.grib2 2026-05-08 08:51 480K
20260508T06Z_MSC_RDPS_WindDir_IsbL-0300_RLatLon0.09_PT037H.grib2 2026-05-08 08:51 474K
20260508T06Z_MSC_RDPS_WindDir_IsbL-0350_RLatLon0.09_PT037H.grib2 2026-05-08 08:51 500K
20260508T06Z_MSC_RDPS_WindDir_IsbL-0400_RLatLon0.09_PT037H.grib2 2026-05-08 08:51 527K
20260508T06Z_MSC_RDPS_WindDir_IsbL-0450_RLatLon0.09_PT037H.grib2 2026-05-08 08:51 541K
20260508T06Z_MSC_RDPS_WindDir_IsbL-0500_RLatLon0.09_PT037H.grib2 2026-05-08 08:51 559K
20260508T06Z_MSC_RDPS_WindDir_IsbL-0550_RLatLon0.09_PT037H.grib2 2026-05-08 08:51 572K
20260508T06Z_MSC_RDPS_WindDir_IsbL-0600_RLatLon0.09_PT037H.grib2 2026-05-08 08:51 595K
20260508T06Z_MSC_RDPS_WindDir_IsbL-0650_RLatLon0.09_PT037H.grib2 2026-05-08 08:51 635K
20260508T06Z_MSC_RDPS_WindDir_IsbL-0700_RLatLon0.09_PT037H.grib2 2026-05-08 08:51 678K
20260508T06Z_MSC_RDPS_WindDir_IsbL-0750_RLatLon0.09_PT037H.grib2 2026-05-08 08:51 734K
20260508T06Z_MSC_RDPS_WindDir_IsbL-0800_RLatLon0.09_PT037H.grib2 2026-05-08 08:51 804K
20260508T06Z_MSC_RDPS_WindDir_IsbL-0850_RLatLon0.09_PT037H.grib2 2026-05-08 08:51 870K
20260508T06Z_MSC_RDPS_WindDir_IsbL-0875_RLatLon0.09_PT037H.grib2 2026-05-08 08:51 893K
20260508T06Z_MSC_RDPS_WindDir_IsbL-0900_RLatLon0.09_PT037H.grib2 2026-05-08 08:51 911K
20260508T06Z_MSC_RDPS_WindDir_IsbL-0925_RLatLon0.09_PT037H.grib2 2026-05-08 08:51 918K
20260508T06Z_MSC_RDPS_WindDir_IsbL-0950_RLatLon0.09_PT037H.grib2 2026-05-08 08:51 917K
20260508T06Z_MSC_RDPS_WindDir_IsbL-0970_RLatLon0.09_PT037H.grib2 2026-05-08 08:51 920K
20260508T06Z_MSC_RDPS_WindDir_IsbL-0985_RLatLon0.09_PT037H.grib2 2026-05-08 08:51 930K
20260508T06Z_MSC_RDPS_WindDir_IsbL-1000_RLatLon0.09_PT037H.grib2 2026-05-08 08:51 945K
20260508T06Z_MSC_RDPS_WindDir_IsbL-1015_RLatLon0.09_PT037H.grib2 2026-05-08 08:51 961K
20260508T06Z_MSC_RDPS_WindGust-Max_AGL-10m_RLatLon0.09_PT037H.grib2 2026-05-08 08:51 1.0M
20260508T06Z_MSC_RDPS_WindGust-Min_AGL-10m_RLatLon0.09_PT037H.grib2 2026-05-08 08:51 1.0M
20260508T06Z_MSC_RDPS_WindGust_AGL-10m_RLatLon0.09_PT037H.grib2 2026-05-08 08:51 1.0M
20260508T06Z_MSC_RDPS_WindSpeed_AGL-10m_RLatLon0.09_PT037H.grib2 2026-05-08 08:51 848K
20260508T06Z_MSC_RDPS_WindSpeed_AGL-120m_RLatLon0.09_PT037H.grib2 2026-05-08 08:51 541K
20260508T06Z_MSC_RDPS_WindSpeed_AGL-40m_RLatLon0.09_PT037H.grib2 2026-05-08 08:51 677K
20260508T06Z_MSC_RDPS_WindSpeed_AGL-80m_RLatLon0.09_PT037H.grib2 2026-05-08 08:51 672K
20260508T06Z_MSC_RDPS_WindSpeed_IsbL-0001_RLatLon0.09_PT037H.grib2 2026-05-08 08:51 255K
20260508T06Z_MSC_RDPS_WindSpeed_IsbL-0005_RLatLon0.09_PT037H.grib2 2026-05-08 08:51 385K
20260508T06Z_MSC_RDPS_WindSpeed_IsbL-0010_RLatLon0.09_PT037H.grib2 2026-05-08 08:51 401K
20260508T06Z_MSC_RDPS_WindSpeed_IsbL-0020_RLatLon0.09_PT037H.grib2 2026-05-08 08:51 325K
20260508T06Z_MSC_RDPS_WindSpeed_IsbL-0030_RLatLon0.09_PT037H.grib2 2026-05-08 08:51 322K
20260508T06Z_MSC_RDPS_WindSpeed_IsbL-0050_RLatLon0.09_PT037H.grib2 2026-05-08 08:51 345K
20260508T06Z_MSC_RDPS_WindSpeed_IsbL-0100_RLatLon0.09_PT037H.grib2 2026-05-08 08:51 473K
20260508T06Z_MSC_RDPS_WindSpeed_IsbL-0150_RLatLon0.09_PT037H.grib2 2026-05-08 08:51 374K
20260508T06Z_MSC_RDPS_WindSpeed_IsbL-0175_RLatLon0.09_PT037H.grib2 2026-05-08 08:51 401K
20260508T06Z_MSC_RDPS_WindSpeed_IsbL-0200_RLatLon0.09_PT037H.grib2 2026-05-08 08:51 436K
20260508T06Z_MSC_RDPS_WindSpeed_IsbL-0225_RLatLon0.09_PT037H.grib2 2026-05-08 08:51 444K
20260508T06Z_MSC_RDPS_WindSpeed_IsbL-0250_RLatLon0.09_PT037H.grib2 2026-05-08 08:51 449K
20260508T06Z_MSC_RDPS_WindSpeed_IsbL-0275_RLatLon0.09_PT037H.grib2 2026-05-08 08:51 468K
20260508T06Z_MSC_RDPS_WindSpeed_IsbL-0300_RLatLon0.09_PT037H.grib2 2026-05-08 08:51 463K
20260508T06Z_MSC_RDPS_WindSpeed_IsbL-0350_RLatLon0.09_PT037H.grib2 2026-05-08 08:51 470K
20260508T06Z_MSC_RDPS_WindSpeed_IsbL-0400_RLatLon0.09_PT037H.grib2 2026-05-08 08:51 474K
20260508T06Z_MSC_RDPS_WindSpeed_IsbL-0450_RLatLon0.09_PT037H.grib2 2026-05-08 08:51 477K
20260508T06Z_MSC_RDPS_WindSpeed_IsbL-0500_RLatLon0.09_PT037H.grib2 2026-05-08 08:51 461K
20260508T06Z_MSC_RDPS_WindSpeed_IsbL-0550_RLatLon0.09_PT037H.grib2 2026-05-08 08:51 582K
20260508T06Z_MSC_RDPS_WindSpeed_IsbL-0600_RLatLon0.09_PT037H.grib2 2026-05-08 08:51 595K
20260508T06Z_MSC_RDPS_WindSpeed_IsbL-0650_RLatLon0.09_PT037H.grib2 2026-05-08 08:51 618K
20260508T06Z_MSC_RDPS_WindSpeed_IsbL-0700_RLatLon0.09_PT037H.grib2 2026-05-08 08:51 688K
20260508T06Z_MSC_RDPS_WindSpeed_IsbL-0750_RLatLon0.09_PT037H.grib2 2026-05-08 08:51 724K
20260508T06Z_MSC_RDPS_WindSpeed_IsbL-0800_RLatLon0.09_PT037H.grib2 2026-05-08 08:51 776K
20260508T06Z_MSC_RDPS_WindSpeed_IsbL-0850_RLatLon0.09_PT037H.grib2 2026-05-08 08:51 827K
20260508T06Z_MSC_RDPS_WindSpeed_IsbL-0875_RLatLon0.09_PT037H.grib2 2026-05-08 08:51 844K
20260508T06Z_MSC_RDPS_WindSpeed_IsbL-0900_RLatLon0.09_PT037H.grib2 2026-05-08 08:51 861K
20260508T06Z_MSC_RDPS_WindSpeed_IsbL-0925_RLatLon0.09_PT037H.grib2 2026-05-08 08:51 869K
20260508T06Z_MSC_RDPS_WindSpeed_IsbL-0950_RLatLon0.09_PT037H.grib2 2026-05-08 08:51 870K
20260508T06Z_MSC_RDPS_WindSpeed_IsbL-0970_RLatLon0.09_PT037H.grib2 2026-05-08 08:51 867K
20260508T06Z_MSC_RDPS_WindSpeed_IsbL-0985_RLatLon0.09_PT037H.grib2 2026-05-08 08:51 863K
20260508T06Z_MSC_RDPS_WindSpeed_IsbL-1000_RLatLon0.09_PT037H.grib2 2026-05-08 08:51 859K
20260508T06Z_MSC_RDPS_WindSpeed_IsbL-1015_RLatLon0.09_PT037H.grib2 2026-05-08 08:51 851K
20260508T06Z_MSC_RDPS_WindU_AGL-10m_RLatLon0.09_PT037H.grib2 2026-05-08 08:51 438K
20260508T06Z_MSC_RDPS_WindU_AGL-120m_RLatLon0.09_PT037H.grib2 2026-05-08 08:51 539K
20260508T06Z_MSC_RDPS_WindU_AGL-40m_RLatLon0.09_PT037H.grib2 2026-05-08 08:51 542K
20260508T06Z_MSC_RDPS_WindU_AGL-80m_RLatLon0.09_PT037H.grib2 2026-05-08 08:51 540K
20260508T06Z_MSC_RDPS_WindU_IsbL-0001_RLatLon0.09_PT037H.grib2 2026-05-08 08:51 247K
20260508T06Z_MSC_RDPS_WindU_IsbL-0005_RLatLon0.09_PT037H.grib2 2026-05-08 08:51 288K
20260508T06Z_MSC_RDPS_WindU_IsbL-0010_RLatLon0.09_PT037H.grib2 2026-05-08 08:51 300K
20260508T06Z_MSC_RDPS_WindU_IsbL-0020_RLatLon0.09_PT037H.grib2 2026-05-08 08:51 316K
20260508T06Z_MSC_RDPS_WindU_IsbL-0030_RLatLon0.09_PT037H.grib2 2026-05-08 08:51 313K
20260508T06Z_MSC_RDPS_WindU_IsbL-0050_RLatLon0.09_PT037H.grib2 2026-05-08 08:51 376K
20260508T06Z_MSC_RDPS_WindU_IsbL-0100_RLatLon0.09_PT037H.grib2 2026-05-08 08:51 429K
20260508T06Z_MSC_RDPS_WindU_IsbL-0150_RLatLon0.09_PT037H.grib2 2026-05-08 08:51 392K
20260508T06Z_MSC_RDPS_WindU_IsbL-0175_RLatLon0.09_PT037H.grib2 2026-05-08 08:51 417K
20260508T06Z_MSC_RDPS_WindU_IsbL-0200_RLatLon0.09_PT037H.grib2 2026-05-08 08:51 430K
20260508T06Z_MSC_RDPS_WindU_IsbL-0225_RLatLon0.09_PT037H.grib2 2026-05-08 08:51 338K
20260508T06Z_MSC_RDPS_WindU_IsbL-0250_RLatLon0.09_PT037H.grib2 2026-05-08 08:51 339K
20260508T06Z_MSC_RDPS_WindU_IsbL-0275_RLatLon0.09_PT037H.grib2 2026-05-08 08:51 354K
20260508T06Z_MSC_RDPS_WindU_IsbL-0300_RLatLon0.09_PT037H.grib2 2026-05-08 08:51 348K
20260508T06Z_MSC_RDPS_WindU_IsbL-0350_RLatLon0.09_PT037H.grib2 2026-05-08 08:51 354K
20260508T06Z_MSC_RDPS_WindU_IsbL-0400_RLatLon0.09_PT037H.grib2 2026-05-08 08:51 461K
20260508T06Z_MSC_RDPS_WindU_IsbL-0450_RLatLon0.09_PT037H.grib2 2026-05-08 08:51 464K
20260508T06Z_MSC_RDPS_WindU_IsbL-0500_RLatLon0.09_PT037H.grib2 2026-05-08 08:51 467K
20260508T06Z_MSC_RDPS_WindU_IsbL-0550_RLatLon0.09_PT037H.grib2 2026-05-08 08:51 473K
20260508T06Z_MSC_RDPS_WindU_IsbL-0600_RLatLon0.09_PT037H.grib2 2026-05-08 08:51 466K
20260508T06Z_MSC_RDPS_WindU_IsbL-0650_RLatLon0.09_PT037H.grib2 2026-05-08 08:51 488K
20260508T06Z_MSC_RDPS_WindU_IsbL-0700_RLatLon0.09_PT037H.grib2 2026-05-08 08:51 512K
20260508T06Z_MSC_RDPS_WindU_IsbL-0750_RLatLon0.09_PT037H.grib2 2026-05-08 08:51 545K
20260508T06Z_MSC_RDPS_WindU_IsbL-0800_RLatLon0.09_PT037H.grib2 2026-05-08 08:51 589K
20260508T06Z_MSC_RDPS_WindU_IsbL-0850_RLatLon0.09_PT037H.grib2 2026-05-08 08:51 633K
20260508T06Z_MSC_RDPS_WindU_IsbL-0875_RLatLon0.09_PT037H.grib2 2026-05-08 08:51 648K
20260508T06Z_MSC_RDPS_WindU_IsbL-0900_RLatLon0.09_PT037H.grib2 2026-05-08 08:51 660K
20260508T06Z_MSC_RDPS_WindU_IsbL-0925_RLatLon0.09_PT037H.grib2 2026-05-08 08:51 666K
20260508T06Z_MSC_RDPS_WindU_IsbL-0950_RLatLon0.09_PT037H.grib2 2026-05-08 08:51 662K
20260508T06Z_MSC_RDPS_WindU_IsbL-0970_RLatLon0.09_PT037H.grib2 2026-05-08 08:51 659K
20260508T06Z_MSC_RDPS_WindU_IsbL-0985_RLatLon0.09_PT037H.grib2 2026-05-08 08:51 797K
20260508T06Z_MSC_RDPS_WindU_IsbL-1000_RLatLon0.09_PT037H.grib2 2026-05-08 08:51 794K
20260508T06Z_MSC_RDPS_WindU_IsbL-1015_RLatLon0.09_PT037H.grib2 2026-05-08 08:51 836K
20260508T06Z_MSC_RDPS_WindV_AGL-10m_RLatLon0.09_PT037H.grib2 2026-05-08 08:51 438K
20260508T06Z_MSC_RDPS_WindV_AGL-120m_RLatLon0.09_PT037H.grib2 2026-05-08 08:51 538K
20260508T06Z_MSC_RDPS_WindV_AGL-40m_RLatLon0.09_PT037H.grib2 2026-05-08 08:51 541K
20260508T06Z_MSC_RDPS_WindV_AGL-80m_RLatLon0.09_PT037H.grib2 2026-05-08 08:51 539K
20260508T06Z_MSC_RDPS_WindV_IsbL-0001_RLatLon0.09_PT037H.grib2 2026-05-08 08:51 295K
20260508T06Z_MSC_RDPS_WindV_IsbL-0005_RLatLon0.09_PT037H.grib2 2026-05-08 08:51 288K
20260508T06Z_MSC_RDPS_WindV_IsbL-0010_RLatLon0.09_PT037H.grib2 2026-05-08 08:51 302K
20260508T06Z_MSC_RDPS_WindV_IsbL-0020_RLatLon0.09_PT037H.grib2 2026-05-08 08:51 317K
20260508T06Z_MSC_RDPS_WindV_IsbL-0030_RLatLon0.09_PT037H.grib2 2026-05-08 08:51 316K
20260508T06Z_MSC_RDPS_WindV_IsbL-0050_RLatLon0.09_PT037H.grib2 2026-05-08 08:51 341K
20260508T06Z_MSC_RDPS_WindV_IsbL-0100_RLatLon0.09_PT037H.grib2 2026-05-08 08:51 425K
20260508T06Z_MSC_RDPS_WindV_IsbL-0150_RLatLon0.09_PT037H.grib2 2026-05-08 08:51 389K
20260508T06Z_MSC_RDPS_WindV_IsbL-0175_RLatLon0.09_PT037H.grib2 2026-05-08 08:51 413K
20260508T06Z_MSC_RDPS_WindV_IsbL-0200_RLatLon0.09_PT037H.grib2 2026-05-08 08:51 331K
20260508T06Z_MSC_RDPS_WindV_IsbL-0225_RLatLon0.09_PT037H.grib2 2026-05-08 08:51 337K
20260508T06Z_MSC_RDPS_WindV_IsbL-0250_RLatLon0.09_PT037H.grib2 2026-05-08 08:51 365K
20260508T06Z_MSC_RDPS_WindV_IsbL-0275_RLatLon0.09_PT037H.grib2 2026-05-08 08:51 378K
20260508T06Z_MSC_RDPS_WindV_IsbL-0300_RLatLon0.09_PT037H.grib2 2026-05-08 08:51 349K
20260508T06Z_MSC_RDPS_WindV_IsbL-0350_RLatLon0.09_PT037H.grib2 2026-05-08 08:51 356K
20260508T06Z_MSC_RDPS_WindV_IsbL-0400_RLatLon0.09_PT037H.grib2 2026-05-08 08:51 357K
20260508T06Z_MSC_RDPS_WindV_IsbL-0450_RLatLon0.09_PT037H.grib2 2026-05-08 08:51 461K
20260508T06Z_MSC_RDPS_WindV_IsbL-0500_RLatLon0.09_PT037H.grib2 2026-05-08 08:51 463K
20260508T06Z_MSC_RDPS_WindV_IsbL-0550_RLatLon0.09_PT037H.grib2 2026-05-08 08:51 467K
20260508T06Z_MSC_RDPS_WindV_IsbL-0600_RLatLon0.09_PT037H.grib2 2026-05-08 08:51 478K
20260508T06Z_MSC_RDPS_WindV_IsbL-0650_RLatLon0.09_PT037H.grib2 2026-05-08 08:51 498K
20260508T06Z_MSC_RDPS_WindV_IsbL-0700_RLatLon0.09_PT037H.grib2 2026-05-08 08:51 521K
20260508T06Z_MSC_RDPS_WindV_IsbL-0750_RLatLon0.09_PT037H.grib2 2026-05-08 08:51 539K
20260508T06Z_MSC_RDPS_WindV_IsbL-0800_RLatLon0.09_PT037H.grib2 2026-05-08 08:51 584K
20260508T06Z_MSC_RDPS_WindV_IsbL-0850_RLatLon0.09_PT037H.grib2 2026-05-08 08:51 629K
20260508T06Z_MSC_RDPS_WindV_IsbL-0875_RLatLon0.09_PT037H.grib2 2026-05-08 08:51 645K
20260508T06Z_MSC_RDPS_WindV_IsbL-0900_RLatLon0.09_PT037H.grib2 2026-05-08 08:51 659K
20260508T06Z_MSC_RDPS_WindV_IsbL-0925_RLatLon0.09_PT037H.grib2 2026-05-08 08:51 665K
20260508T06Z_MSC_RDPS_WindV_IsbL-0950_RLatLon0.09_PT037H.grib2 2026-05-08 08:51 664K
20260508T06Z_MSC_RDPS_WindV_IsbL-0970_RLatLon0.09_PT037H.grib2 2026-05-08 08:51 803K
20260508T06Z_MSC_RDPS_WindV_IsbL-0985_RLatLon0.09_PT037H.grib2 2026-05-08 08:51 799K
20260508T06Z_MSC_RDPS_WindV_IsbL-1000_RLatLon0.09_PT037H.grib2 2026-05-08 08:51 842K
20260508T06Z_MSC_RDPS_WindV_IsbL-1015_RLatLon0.09_PT037H.grib2 2026-05-08 08:51 836K